Torna al catalogo

TITAN 34D TRANSTAGE DEB

LostGTO
NORAD 44362·DEBRIS·🇺🇸 United States

Lanciato Sep 2, 1988 da Cape Canaveral Space Force Station

Loading…

TLE

ObsoletoSource: Space-Track

Epoca: Feb 13, 2022, 18:00 UTC

1 44362U 88077V   22044.75047762  .00000661  00000-0  99327-3 0  9995
2 44362  26.7659 270.6167 7146869 257.2427  20.8454  2.40354477 22952

Traccia TITAN 34D TRANSTAGE DEB in tempo reale con AllMySat

Download on the App Store